General Aviation Weather

Text Reports

Enter one or more of the following location identifiers separated by a space:

Zip Code, Four-Character ICAO or Three-Character IATA airport codes.

METAR - Aviation Routine Weather Report
PADE - Deering, Alaska
Updated at 8:57 AM GMT on November 01, 2014 (12:57 AM AKDT):
METAR PADE 010857Z 04019G28KT 10SM CLR M07/M13 A2950 RMK DA -2100 TSNO VIA PHONE
TAF - Terminal Area Forecast
PADE - Deering, Alaska
Updated at 8:57 AM GMT on November 01, 2014 (12:57 AM AKDT):
No TAF is currently available for this location.
Decoded:
No decoded TAF is available.
PIREP - Pilot Weather Report
PADE - Deering, Alaska
Updated at 8:57 AM GMT on November 01, 2014 (12:57 AM AKDT):
No PIREP is currently available for this location.
AIRMET - Airmens Meteorological Information
PADE - Deering, Alaska
Updated at 8:57 AM GMT on November 01, 2014 (12:57 AM AKDT):
No AIRMET is currently available for this location.
SIGMET - Significant Meteorological Information
PADE - Deering, Alaska
Updated at 8:57 AM GMT on November 01, 2014 (12:57 AM AKDT):
No SIGMET is currently available for this location.
NOTAM - Notice to Airmen
PADE - Deering, Alaska
Updated at 8:57 AM GMT on November 01, 2014 (12:57 AM AKDT):
No NOTAM is currently available for this location.
Forecast Area
PADE - Deering, Alaska
Updated at 8:57 AM GMT on November 01, 2014 (12:57 AM AKDT):
No NOTAM is currently available for this location.
Aviation Weather Maps